Regional Weather Roundup
Issued by NWS Wakefield, VA

Home | Current Version | Previous Version | Text Only | Print | Product List | Glossary On
Versions: 1 2 3 4 5 6 7 8 9 10 11 12 13 14 15 16 17 18 19 20 21 22 23 24 25 26 27
000
ASUS41 KAKQ 220415
RWRAKQ

REGIONAL WEATHER ROUNDUP
NATIONAL WEATHER SERVICE WAKEFIELD VA
1200 AM EDT TUE MAY 22 2018

Note: "fair" indicates few or no clouds below 12,000 feet with no
significant weather and/or obstructions to visibility. * = Denotes
station may not report precipitation (e.g., rain,snow,etc.),
thunder or fog.

VAZ042-051-052>054-056-220500-
NORTHERN VIRGINIA

CITY           SKY/WX    TMP DP  RH WIND       PRES   REMARKS
WASH NATIONAL  MOCLDY    68  59  73 S7        30.16S
DULLES         CLOUDY    69  64  84 S7        30.15S
FORT BELVOIR   NOT AVBL
QUANTICO       FAIR      69  63  81 S9        30.16S
FREDERICKSBRG* FAIR      68  62  80 S5        30.15S
STAFFORD*      FAIR      68  63  84 S3        30.19S
WARRENTON      FAIR      70  60  69 S5        30.15S
CULPEPER*      MOCLDY    71  61  71 S3        30.16S
MANASSAS*      FAIR      68  63  84 SE3       30.15F
LEESBURG*      CLOUDY    72  64  78 S5        30.16S
WINCHESTER     MOCLDY    70  63  78 S5        30.15F
FRONT ROYAL*   CLOUDY    70  66  88 CALM      30.12F
LURAY*         CLOUDY    70  68  94 SW7       30.15S
$$

VAZ048-049-060>072-079>083-220500-
CENTRAL AND SOUTH CENTRAL VIRGINIA

CITY           SKY/WX    TMP DP  RH WIND       PRES   REMARKS
RICHMOND       CLOUDY    67  60  78 E6        30.15F
CHESTERFIELD*  CLOUDY    67  60  78 E3        30.16F
PETERSBURG*    CLOUDY    66  60  79 CALM      30.17S
HANOVER        CLOUDY    68  59  73 CALM      30.16F
TAPPAHANNOCK*  NOT AVBL
QUINTON*       CLOUDY    65  60  84 CALM      30.16F
CHARLOTTSVILLE CLOUDY    73  67  81 S7        30.14F
GORDONSVILLE*  FAIR      69  67  93 CALM      30.14F
ORANGE*        FAIR      68  61  77 CALM      30.15F
LOUISA*        CLOUDY    67  62  81 SE5       30.19F
BUMPASS*       CLOUDY    67  59  75 S7        30.15F
FARMVILLE*     FAIR     N/A N/A N/A CALM      30.14F
CREWE*         CLOUDY    67  67 100 CALM      30.15F
FORT PICKETT*  CLOUDY    65  65 100 E5        30.15F
CHASE CITY*    CLOUDY    69  69 100 CALM      30.15S
CLARKSVILLE*   MOCLDY    68  68 100 CALM      30.15S
SOUTH HILL*    CLOUDY    65  65 100 CALM      30.21S
LAWRENCEVILLE* MOCLDY    65  64  94 CALM      30.16R
EMPORIA*       CLOUDY    64  63  94 CALM      30.17S
$$

VAZ088>098-220500-
SOUTHEAST VIRGINIA

CITY           SKY/WX    TMP DP  RH WIND       PRES   REMARKS
NORFOLK        CLOUDY    67  63  87 NE5       30.15F
VIRGINIA BEACH CLOUDY    66  63  90 E6        30.15S
NORFOLK NAVAL  CLOUDY    67  61  81 E5        30.17F
WEST POINT*    CLOUDY    65  60  81 E3        30.18F
SALUDA*        MOCLDY    66  61  82 CALM      30.16F
NEWPORT NEWS   CLOUDY    67  62  84 E5        30.16F
LANGLEY AFB    CLOUDY    67  63  87 S7        30.16F
FORT EUSTIS    CLOUDY    67  62  84 SE3       30.14S
WILLIAMSBURG*  FAIR      66  63  88 CALM      30.17F
HR EXEC AP*    CLOUDY    66  62  87 E3        30.17S
FRANKLIN*      CLOUDY    65  63  96 E3        30.16S
US460-WAKEFLD  CLOUDY    66  61  84 CALM      30.16F
$$

VAZ020-022-025-037-045-220500-
WEST CENTRAL AND SOUTHWEST VIRGINIA

CITY           SKY/WX    TMP DP  RH WIND       PRES   REMARKS
STAUNTON*      RAIN      65  64  96 CALM      30.20F
WAYNESBORO*    CLOUDY    65  64  99 CALM      30.18F
HOT SPRINGS VA CLOUDY    60  60 100 SE9       30.27F
LYNCHBURG      LGT RAIN  67  65  93 CALM      30.17F
DANVILLE       CLOUDY    69  69 100 CALM      30.14F
SOUTH BOSTON*  CLOUDY    68  66  94 CALM      30.15S
MARTINSVILLE   CLOUDY    67  66  98 CALM      30.19S FOG
ROANOKE        CLOUDY    69  65  86 NE5       30.19F
BLACKSBURG     CLOUDY    66  65  99 CALM      30.23F
DUBLIN*        CLOUDY    67  66  99 CALM      30.23S
MARION*        FAIR      66  65  99 CALM      30.23S
HILLSVILLE*    MOCLDY    63  62  96 CALM      30.22S
RICHLANDS*     CLOUDY    67  28  23 SE5       30.19F
WISE*          FAIR      64  64 100 CALM      30.19F
ABINGDON*      FAIR      68  66  94 CALM      30.17F
$$

MDZ021>025-VAZ099-100-220500-
SOUTHERN MARYLAND AND THE DELMARVA PENINSULA

CITY           SKY/WX    TMP DP  RH WIND       PRES   REMARKS
PATUXENT RIVER MOCLDY    68  58  70 S7        30.16F
BAY BRIDGE APT FAIR      66  63  88 SW3       30.15F
LEONARDTOWN    MOCLDY    63  57  82 CALM      30.17F
DOVER          FAIR      61  57  86 SE3       30.16F
GEORGETOWN     FAIR      60  56  86 CALM      30.17F
EASTON         FAIR      66  57  74 S6        30.20F
CAMBRIDGE      CLOUDY    63  59  88 SE5       30.16F
SALISBURY      FAIR      60  58  92 CALM      30.17S
TANGIER        MOCLDY    66  59  77 SE6       30.16F
OCEAN CITY     FAIR      58  57  97 CALM      30.18S
WALLOPS ISLAND CLOUDY    65  58  78 SE3       30.18S
ACCOMACK*      FAIR      63  59  88 CALM      30.17S
$$

NCZ012>017-030>032-220500-
NORTH CENTRAL AND EASTERN NORTH CAROLINA

CITY           SKY/WX    TMP DP  RH WIND       PRES   REMARKS
ROANOKE RAPIDS FOG       68  68 100 CALM      30.15S VSB 3/4
RALEIGH        TSTM      69  69 100 S3        30.16S FOG
ELIZABETH CITY CLOUDY    69  68  96 NE5       30.15R
AHOSKIE*       FOG       65  65 100 CALM      30.16S VSB 1
EDENTON*       NOT AVBL
CURRITUCK*     NOT AVBL
KILL DEVIL HLS FOG       64  64 100 CALM      30.13F VSB 1/2
MANTEO         CLOUDY    66  66  99 E5        30.14F FOG
CAPE HATTERAS  FAIR      74  72  93 SW7       30.15S
TARBORO*       NOT AVBL
GOLDSBORO      FAIR      73  70  88 W5        30.13
WASHINGTON     FAIR      69  68  96 CALM      30.14S
GREENVILLE     MOCLDY    70  70 100 CALM      30.16S FOG
NEW BERN       FAIR      70  69  97 SW6       30.15S
WILMINGTON     FAIR      74  70  87 SW7       30.15S
$$

VAZ048-220500-
ELSEWHERE

CITY           SKY/WX    TMP DP  RH WIND       PRES   REMARKS
HARRISBURG PA  MOCLDY    66  58  75 E5        30.13F
BALTIMORE      MOCLDY    66  60  81 S3        30.15S
ANNAPOLIS      FAIR      70  60  70 S7        30.15F
ANDREWS AFB    FAIR      64  57  78 CALM      30.15S
PHILADELPHIA   FAIR      63  52  67 S5        30.17F
HENDERSON NC   LGT RAIN  65  64  97 CALM      30.16R
GREENSBORO     LGT RAIN  69  68  96 S6        30.15F
ROCKY MOUNT    CLOUDY    69  68  96 CALM      30.15S
$$

VAZ100-220500-
MARINE

STATION/POSITION TIME  TEMP    WIND        PRES    WAVE   SWELL
                       AIR SEA DIR/SP/G            HT/PER HT/PER
                 (UTC) (F)     (DEG/KT/KT) (MB)    (FT/S) (FT/S)
BRANDYWINE LGT   0342   63     180/  5/  6 1022.1F
CAPE MAY NJ      0348   59 64  120/  1/  2 1021.3S
LEWES DE         0342   60 62  170/  1/  2 1021.6F
15NM E FENWICK I 0350   57 59   90/  4/  4 1022.0F   3/ 8   2/ 8
OCEAN-CITY-INLET 0342   61 62   80/  1/  2 1022.3R
WACHAPREAGUE VA  0342   65 74   70/  4/  5 1021.7S
THOMAS POINT MD  0400   67 68  190/ 11/ 12 1022.0S
COVE POINT MD    0342   68     190/ 12/ 13 1021.9F
SOLOMONS ISLAND  0342   67 69  160/  6/  8 1021.1F
BISHOPS HEAD MD  0342   69 77  140/  9/ 10 1022.0F
PINEY POINT MD   0342          170/  9/ 11   N/A
CAMBRIDGE MD     0342   65 72              1022.5F
LEWISETTA VA     0342   67 74  170/  4/  5 1021.5F
RAPPAHANNOCK LGT 0342           90/  7/  8 1022.2F
YORK RVR RNG VA  0342   68     120/  8/  9 1022.0S
YORKTOWN VA      0342   68 73  120/  6/  7 1021.0F
DOMINION TERM VA 0342   68      30/  2/  7 1021.6F
KIPTOPEKE VA     0342      69  100/  6/  8   N/A
CAPE HENRY VA    0342   65      90/  8/ 10   N/A
WILLOUBY STN VA  0342           80/  9/  9   N/A
S CRANEY ISL VA  0342   67      80/  5/  7 1021.1F
CAPE HENRY BUOY  0330      66                N/A     3/ 8
64NM E OF VA BCH 0350   64 67  100/  8/  8 1021.6F   3/ 9   3/ 9
DUCK PIER NC     0342   67 67   80/  9/ 11 1020.4F
44100 DUCK FRF   0345      67                N/A     3/ 8
44056 DUCK FRF   0330      65                N/A     3/ 8
OREGON INLET NC  0342   72 78   20/  2/  2 1020.3S
HATTERAS NC      0342   74 77  230/  7/ 12 1020.6S
DIAMOND SHLS NC  0350   75 74  230/  8/ 10 1021.0F   3/ 8   3/ 8
CAPE LOOKOUT NC  0300          210/ 10/ 14 1020.9F
$$




USA.gov is the U.S. government's official web portal to all federal, state and local government web resources and services.